Regional Weather Roundup
Issued by NWS

Home | Current Version | Previous Version | Text Only | Print | Product List | Glossary On
Versions: 1 2 3 4 5 6 7 8 9 10 11 12 13 14 15 16 17 18 19 20 21 22 23 24 25 26 27 28
000
ASUS45 KREV 300010
RWRNV
NEVADA REGIONAL WEATHER ROUNDUP
NATIONAL WEATHER SERVICE RENO NV
500 PM PDT THU SEP 29 2016

NOTE: "FAIR" INDICATES FEW OR NO CLOUDS BELOW 12,000 FEET WITH NO
SIGNIFICANT WEATHER AND/OR OBSTRUCTIONS TO VISIBILITY.

NVZ001-003-004-300100-
WESTERN NEVADA

CITY           SKY/WX    TMP DP  RH WIND       PRES   REMARKS
RENO           MOSUNNY   81  33  17 W18       30.09S
6HR MIN TEMP:  75; 6HR MAX TEMP:  85;

CARSON CITY    FAIR      77  32  19 W14G20    30.14F
MINDEN         FAIR      77  34  20 W17G31    30.14S
PYRAMID LAKE     N/A     81 N/A N/A NE6         N/A
FALLON         MOSUNNY   85  35  16 SW3       30.04F
6HR MIN TEMP:  78; 6HR MAX TEMP:  87;

LOVELOCK       SUNNY     84  32  15 S7        30.03F
6HR MIN TEMP:  76; 6HR MAX TEMP:  85;

HAWTHORNE        N/A    N/A N/A N/A MISG        N/A
$$

NVZ002-CAZ072-073-300100-
NORTHERN AND CENTRAL SIERRA

CITY           SKY/WX    TMP DP  RH WIND       PRES   REMARKS
S. LAKE TAHOE  SUNNY     69  33  26 VRB6G18   30.24F
6HR MIN TEMP:  68; 6HR MAX TEMP:  73;

TRUCKEE        SUNNY     72  30  21 S15G23    30.23S
                   6HR MAX TEMP:  73;

SQUAW VLY 8000 NOT AVBL
SUSANVILLE     SUNNY     79  23  12 S9G18     30.10R
MAMMOTH LAKES  CLOUDY    69  36  29 SE6       30.31R
6HR MIN TEMP:  65; 6HR MAX TEMP:  74;

BRIDGEPORT     LGT RAIN  70  28  21 SW14G21   30.25S
$$

NVZ030-031-036-300100-
NORTHERN NEVADA

CITY           SKY/WX    TMP DP  RH WIND       PRES   REMARKS
ELKO           PTSUNNY   73  35  25 S18G30    30.14R
6HR MIN TEMP:  73; 6HR MAX TEMP:  81;

WINNEMUCCA     SUNNY     83  33  16 W9G18     30.06S
6HR MIN TEMP:  80; 6HR MAX TEMP:  86;

WENDOVER       MOSUNNY  N/A N/A N/A MISG        N/A
$$

NVZ035-037-300100-
CENTRAL NEVADA

CITY           SKY/WX    TMP DP  RH WIND       PRES   REMARKS
ELY            CLOUDY    69  39  33 S3        30.26F
6HR MIN TEMP:  63; 6HR MAX TEMP:  72; 6HR PCP: TRACE;

EUREKA           N/A     72  39  30 S12       30.21F
6HR MIN TEMP:  67; 6HR MAX TEMP:  75;

$$

NVZ013-014-300100-
SOUTH CENTRAL NEVADA

CITY           SKY/WX    TMP DP  RH WIND       PRES   REMARKS
TONOPAH        SUNNY     76  38  25 S10       30.19F
6HR MIN TEMP:  69; 6HR MAX TEMP:  78;

$$

NVZ017-020-022-300100-
SOUTHERN NEVADA

CITY           SKY/WX    TMP DP  RH WIND       PRES   REMARKS
LAS VEGAS      MOSUNNY   88  44  21 E6        30.03F
6HR MIN TEMP:  81; 6HR MAX TEMP:  90;

N. LAS VEGAS   MOSUNNY   87  48  25 S7        30.03S
6HR MIN TEMP:  80; 6HR MAX TEMP:  89;

NELLIS AFB     MOSUNNY   89  50  26 S5        30.01F
6HR MIN TEMP:  83; 6HR MAX TEMP:  90;

HENDERSON      MOSUNNY   88  50  27 SE12      30.07S
6HR MIN TEMP:  78; 6HR MAX TEMP:  89;

MERCURY        MOSUNNY   85  43  22 S9        30.09F
6HR MIN TEMP:  79; 6HR MAX TEMP:  87;

$$




USA.gov is the U.S. government's official web portal to all federal, state and local government web resources and services.